{"data":{"norad_id":59368,"epoch":"2026-05-25T04:33:00.614016Z","epoch_age_seconds":51889,"freshness":"FRESH","line1":"1 59368U 24060W   26145.18959044  .00001198  00000+0  53055-4 0  9991","line2":"2 59368  43.0016 187.7249 0001347 269.5815  90.4882 15.27579313121767","mean_motion":15.27579313,"eccentricity":0.0001347,"inclination_deg":43.0016,"raan_deg":187.7249,"arg_perigee_deg":269.5815,"mean_anomaly_deg":90.4882,"bstar":5.3055e-5,"rev_number":12176,"period_min":94.266791108345,"perigee_km":482.12695112134,"apogee_km":483.9753552098,"semimajor_km":6861.1881531656,"source":"CELESTRAK","updated_at":"2026-05-25T13:38:18.912513Z"}}